COSMOS 1275 DEB

Satellite information

Favourite Embed

Satellite Type and Status

DEBRISIN ORBIT

Key statistics

Satellite COSMOS 1275 DEB at a glance.

Uptime

16164

Days in orbit

Revolutions

≈ 14.0

Per day

Orbit

LEO

Low Earth Orbit

Inclination

83.0

Latest

Satellite identification and parameters

Extended collection of information and parameters for COSMOS 1275 DEB.

Object identification

Identified? True

Debris? True

Object name: COSMOS 1275 DEB

International designator: 1981-053QD

Object number (NORAD): 42117

Object ID (CCSDS): 42117

Country: COMMONWEALTH OF INDEPENDENT STATES (CIS)

Current information (Y/N): Y

RCS size: SMALL

Orbital parameters

Period: 103.08 minutes

Inclination: 82.9848 deg

SMA: 7282.413 km

Apoapsis: 917.258 km

Periapsis: 891.297 km

RAAN: 320.5578 deg

Eccentricy: 0.00178242

Argument of periapsis: 107.8978 deg

Mean anomaly: 252.4136 deg

Mean motion: 13.96978885 rev/day

Mean motion (dot): 0.00000511 rev/day2

B* drag term: 0.00035461516 1/REarth

Two-line elements (TLE)

Creation date: Aug. 22, 2025, 9:09 p.m.

Reference frame: TEME

Reference center: EARTH

Epoch: Aug. 21, 2025, 12:10 p.m. UTC

TLE line 0: 0 COSMOS 1275 DEB

TLE line 1: 1 42117U 81053QD 25233.50698196 .00000511 00000-0 35462-3 0 9991

TLE line 2: 2 42117 82.9848 320.5578 0017824 107.8978 252.4136 13.96978885597163

Live tracking on map

Real-time ground track for satellite COSMOS 1275 DEB.

In-orbit conjunctions

A list of the most updated potential collisions computed for object COSMOS 1275 DEB.

Target Orbit TCA Probability of collision Miss distance Type
COSMOS 651 LEO 2024-09-01 02:32:40 0.0001953834 391.0 (m) PAYLOAD

Associated space launch

Navigation satellite providing location information for the Tsiklon-B navigation system

COSMOS 1275 DEB was lifted into orbit during the mission ‘Kosmos-3M | Parus 27’, on board a Kosmos-3M space rocket.

The launch took place on June 4, 1981, 3:41 p.m. from 132/2.

For more information about the launch, click the button.

Launch to space Kosmos-3M | Parus 27
Kosmos-3M | Parus 27

Agency: N/A

Status: Launch Successful

Launch date: June 4, 1981, 3:41 p.m. UTC

Rocket: Kosmos-3M

Launch pad: 132/2

Location: Plesetsk Cosmodrome, Russian Federation

...

Latest news about this satellite

There are no fresh news available about this satellite. Check back as we update our databases every day.


Newsletter sign-up

Weekly statistics, charts and insights to help you stay on top of the space industry.